Weather History for KHCD - September, 2011

Change the Weather History Date:

Tuesday, September 27, 2011

  Actual Average Record
Temperature  
Mean Temperature 67 °F -  
Max Temperature 77 °F 69 °F 90 °F (1983)
Min Temperature 56 °F 43 °F 31 °F (1967)
Cooling Degree Days 2    
Growing Degree Days 17 (Base 50)    
Moisture  
Dew Point 53 °F    
Average Humidity 65    
Maximum Humidity 89    
Minimum Humidity 49    
Precipitation  
Precipitation 0.00 in - - ()
Sea Level Pressure  
Sea Level Pressure 29.91 in    
Wind  
Wind Speed 6 mph (NNW)    
Max Wind Speed 13 mph    
Max Gust Speed 18 mph    
Visibility 10 miles    
Events      
Averages and records for this station are not official NWS values.
T = Trace of Precipitation, MM = Missing Value Source: NWS Daily Summary

Daily Weather History Graph

Daily Weather History Graph

Search for Another Location

Airport or City:

Trip Planner

Search our weather history database for the weather conditions in past years. The results will help you decide how hot, cold, wet, or windy it might be!

Date:

Astronomy

Sep. 27, 2011 Rise Set
Actual Time 7:10 AM CDT 7:06 PM CDT
Civil Twilight 6:41 AM CDT 7:35 PM CDT
Nautical Twilight 6:07 AM CDT 8:09 PM CDT
Astronomical Twilight 5:32 AM CDT 8:43 PM CDT
Moon 7:28 AM CDT (9/27) 6:52 PM CDT (9/27)
Length of Visible Light 12h 53m
Length of Day
11h 55m
New Moon, 0% of the Moon is Illuminated
Sep 27
New Moon
Oct 3
First Quarter
Oct 11
Full
Oct 19
Last Quarter
Oct 26
New

Hourly Weather History & Observations

Time (CDT) Temp. Dew Point Humidity Pressure Visibility Wind Dir Wind Speed Gust Speed Precip Events Conditions
12:13 AM 60.8 °F 47.5 °F 62% 29.89 in 10.0 mi North 5.8 mph - N/A   Overcast
12:33 AM 60.8 °F 47.7 °F 62% 29.89 in 10.0 mi North 6.9 mph - N/A   Overcast
12:53 AM 60.8 °F 47.5 °F 62% 29.89 in 10.0 mi North 5.8 mph - N/A   Mostly Cloudy
1:13 AM 60.8 °F 47.7 °F 62% 29.89 in 10.0 mi North 8.1 mph - N/A   Scattered Clouds
1:33 AM 59.7 °F 47.5 °F 64% 29.89 in 10.0 mi North 3.5 mph - N/A   Clear
1:53 AM 59.5 °F 48.6 °F 67% 29.88 in 10.0 mi NNW 5.8 mph - N/A   Clear
2:13 AM 59.5 °F 49.3 °F 69% 29.88 in 10.0 mi NW 5.8 mph - N/A   Scattered Clouds
2:33 AM 57.2 °F 48.2 °F 72% 29.88 in 10.0 mi NNW 8.1 mph - N/A   Clear
2:52 AM 57.2 °F 47.1 °F 69% 29.88 in 10.0 mi NNW 11.5 mph - N/A   Clear
3:13 AM 57.2 °F 46.8 °F 68% 29.88 in 10.0 mi North 8.1 mph - N/A   Clear
3:33 AM 57.2 °F 46.4 °F 67% 29.88 in 10.0 mi North 8.1 mph - N/A   Clear
3:53 AM 57.7 °F 46.2 °F 65% 29.88 in 10.0 mi North 5.8 mph - N/A   Clear
4:13 AM 58.1 °F 46.8 °F 66% 29.88 in 10.0 mi NNW 10.4 mph 18.4 mph N/A   Scattered Clouds
4:33 AM 58.5 °F 47.5 °F 67% 29.89 in 10.0 mi NNW 12.7 mph 16.1 mph N/A   Scattered Clouds
4:53 AM 59.5 °F 48.7 °F 67% 29.89 in 10.0 mi NNW 11.5 mph - N/A   Mostly Cloudy
5:13 AM 59.5 °F 48.4 °F 67% 29.90 in 10.0 mi North 9.2 mph - N/A   Overcast
6:13 AM 59.5 °F 49.1 °F 68% 29.92 in 10.0 mi North 5.8 mph - N/A   Overcast
6:33 AM 59.2 °F 50.0 °F 72% 29.92 in 10.0 mi Calm Calm - N/A   Overcast
6:53 AM 59.5 °F 49.8 °F 70% 29.93 in 10.0 mi NNE 5.8 mph - N/A   Overcast
7:13 AM 59.5 °F 49.1 °F 68% 29.93 in 10.0 mi NE 6.9 mph - N/A   Overcast
7:33 AM 59.5 °F 49.5 °F 69% 29.93 in 10.0 mi North 4.6 mph - N/A   Overcast
7:53 AM 59.5 °F 50.0 °F 71% 29.94 in 10.0 mi Calm Calm - N/A   Overcast
8:13 AM 59.5 °F 50.0 °F 71% 29.94 in 10.0 mi NW 5.8 mph - N/A   Overcast
8:33 AM 59.5 °F 50.4 °F 72% 29.95 in 10.0 mi WNW 5.8 mph - N/A   Overcast
8:53 AM 59.5 °F 50.9 °F 73% 29.95 in 10.0 mi NW 5.8 mph - N/A   Overcast
9:12 AM 59.5 °F 50.2 °F 71% 29.95 in 10.0 mi NW 9.2 mph - N/A   Overcast
9:33 AM 60.3 °F 50.2 °F 69% 29.95 in 10.0 mi NW 4.6 mph - N/A   Overcast
9:53 AM 61.5 °F 51.1 °F 69% 29.95 in 10.0 mi NNW 5.8 mph - N/A   Overcast
10:13 AM 64.4 °F 51.8 °F 64% 29.95 in 10.0 mi NW 8.1 mph - N/A   Overcast
10:52 AM 63.3 °F 51.8 °F 66% 29.97 in 10.0 mi NNW 8.1 mph - N/A   Overcast
11:13 AM 64.6 °F 52.2 °F 64% 29.95 in 10.0 mi NNW 12.7 mph - N/A   Overcast
11:53 AM 68.9 °F 55.9 °F 63% 29.96 in 10.0 mi North 8.1 mph - N/A   Overcast
12:13 PM 69.8 °F 55.9 °F 61% 29.95 in 10.0 mi NNW 10.4 mph - N/A   Scattered Clouds
12:33 PM 69.8 °F 55.4 °F 60% 29.94 in 10.0 mi North 6.9 mph - N/A   Clear
1:13 PM 72.1 °F 57.9 °F 61% 29.93 in 10.0 mi NNE 5.8 mph - N/A   Scattered Clouds
1:33 PM 72.3 °F 58.3 °F 61% 29.93 in 10.0 mi NNW 8.1 mph - N/A   Clear
1:53 PM 73.0 °F 58.6 °F 61% 29.92 in 10.0 mi North 6.9 mph - N/A   Clear
2:13 PM 74.1 °F 59.2 °F 59% 29.91 in 10.0 mi NNE 6.9 mph - N/A   Clear
2:32 PM 74.7 °F 57.6 °F 55% 29.91 in 10.0 mi NE 5.8 mph - N/A   Clear
2:53 PM 74.7 °F 56.5 °F 53% 29.90 in 10.0 mi NNW 8.1 mph - N/A   Clear
3:13 PM 76.8 °F 57.7 °F 52% 29.89 in 10.0 mi NW 5.8 mph - N/A   Clear
3:33 PM 74.7 °F 56.5 °F 53% 29.89 in 10.0 mi NW 9.2 mph - N/A   Clear
3:53 PM 77.2 °F 57.6 °F 51% 29.89 in 10.0 mi NNW 9.2 mph 16.1 mph N/A   Clear
4:13 PM 76.6 °F 57.9 °F 52% 29.88 in 10.0 mi North 8.1 mph - N/A   Clear
4:33 PM 76.5 °F 57.0 °F 51% 29.88 in 10.0 mi NW 9.2 mph - N/A   Clear
4:53 PM 77.2 °F 57.0 °F 50% 29.88 in 10.0 mi NW 11.5 mph - N/A   Clear
5:13 PM 77.2 °F 56.8 °F 49% 29.88 in 10.0 mi NNW 8.1 mph - N/A   Clear
5:33 PM 77.2 °F 57.4 °F 50% 29.88 in 10.0 mi NW 9.2 mph - N/A   Clear
5:53 PM 74.7 °F 56.3 °F 53% 29.88 in 10.0 mi North 3.5 mph - N/A   Clear
6:13 PM 74.7 °F 57.9 °F 56% 29.88 in 10.0 mi NNW 6.9 mph - N/A   Clear
6:33 PM 74.7 °F 59.2 °F 58% 29.88 in 10.0 mi Calm Calm - N/A   Clear
6:53 PM 70.0 °F 56.5 °F 62% 29.89 in 10.0 mi North 3.5 mph - N/A   Clear
7:13 PM 69.8 °F 58.3 °F 67% 29.89 in 10.0 mi Calm Calm - N/A   Clear
7:33 PM 63.0 °F 56.3 °F 79% 29.89 in 10.0 mi Calm Calm - N/A   Clear
7:53 PM 61.2 °F 55.8 °F 82% 29.89 in 10.0 mi Calm Calm - N/A   Clear
8:12 PM 59.7 °F 54.5 °F 83% 29.89 in 10.0 mi Calm Calm - N/A   Clear
8:33 PM 57.9 °F 52.7 °F 83% 29.90 in 10.0 mi Calm Calm - N/A   Clear
8:53 PM 57.6 °F 53.2 °F 85% 29.89 in 10.0 mi Calm Calm - N/A   Clear
9:13 PM 58.6 °F 54.5 °F 86% 29.89 in 10.0 mi Calm Calm - N/A   Clear
9:33 PM 56.7 °F 53.6 °F 89% 29.89 in 10.0 mi Calm Calm - N/A   Clear
9:53 PM 55.2 °F 52.3 °F 90% 29.89 in 10.0 mi Calm Calm - N/A   Clear
10:13 PM 54.5 °F 52.0 °F 91% 29.89 in 7.0 mi Calm Calm - N/A   Clear
10:33 PM 55.6 °F 53.4 °F 92% 29.89 in 7.0 mi Calm Calm - N/A   Clear
10:53 PM 52.0 °F 50.0 °F 93% 29.89 in 10.0 mi Calm Calm - N/A   Clear
11:13 PM 52.0 °F 50.0 °F 93% 29.89 in 7.0 mi Calm Calm - N/A   Clear
11:33 PM 54.5 °F 52.5 °F 93% 29.89 in 10.0 mi Calm Calm - N/A   Clear
11:53 PM 50.2 °F 48.0 °F 92% 29.89 in 7.0 mi Calm Calm - N/A   Clear